NOAA 17 DEB

Satellite information

Favourite Embed

Satellite Type and Status

DEBRISIN ORBIT

Key statistics

Satellite NOAA 17 DEB at a glance.

Uptime

8468

Days in orbit

Revolutions

≈ 14.4

Per day

Orbit

SSO

Sun Synchronous Orbit

Inclination

98.7

Latest

Satellite identification and parameters

Extended collection of information and parameters for NOAA 17 DEB.

Object identification

Identified? True

Debris? True

Object name: NOAA 17 DEB

International designator: 2002-032BJ

Object number (NORAD): 48725

Object ID (CCSDS): 48725

Country: UNITED STATES OF AMERICA (US)

Current information (Y/N): Y

RCS size: SMALL

Orbital parameters

Period: 99.867 minutes

Inclination: 98.6981 deg

SMA: 7130.301 km

Apoapsis: 794.589 km

Periapsis: 709.743 km

RAAN: 178.8739 deg

Eccentricy: 0.00594968

Argument of periapsis: 132.2155 deg

Mean anomaly: 228.4105 deg

Mean motion: 14.41919201 rev/day

Mean motion (dot): 0.00013479 rev/day2

B* drag term: 0.00403557 1/REarth

Two-line elements (TLE)

Creation date: Aug. 28, 2025, 11:13 p.m.

Reference frame: TEME

Reference center: EARTH

Epoch: Aug. 28, 2025, 6:43 a.m. UTC

TLE line 0: 0 NOAA 17 DEB

TLE line 1: 1 48725U 02032BJ 25240.28035792 .00013479 00000-0 40356-2 0 9996

TLE line 2: 2 48725 98.6981 178.8739 0059497 132.2155 228.4105 14.41919201230420

Live tracking on map

Real-time ground track for satellite NOAA 17 DEB.

In-orbit conjunctions

A list of the most updated potential collisions computed for object NOAA 17 DEB.

Target Orbit TCA Probability of collision Miss distance Type
TRIAD 1 LEO 2025-04-14 08:09:33 0.0001007061 513.0 (m) PAYLOAD
NOAA 8 SSO 2025-02-28 03:33:19 0.0001802185 803.0 (m) PAYLOAD
COSMOS 494 LEO 2024-11-11 11:18:38 0.0001485444 512.0 (m) PAYLOAD
NOAA 16 DEB SSO 2024-11-08 22:14:39 0.0001073004 268.0 (m) DEBRIS
CZ-6A DEB LEO 2024-09-28 02:42:28 0.0002541281 156.0 (m) DEBRIS

Associated space launch

NOAA M carried weather imagers and microwave and infrared sounders, as well as a SARSAT search-and-rescue package. It had an on-orbit mass of 1475 kg.

NOAA 17 DEB was lifted into orbit during the mission ‘Titan II SLV | NOAA 17’, on board a Titan II SLV space rocket.

The launch took place on June 24, 2002, 6:23 p.m. from Space Launch Complex 4W.

For more information about the launch, click the button.

Launch to space Titan II SLV | NOAA 17
Titan II SLV | NOAA 17

Agency: N/A

Status: Launch Successful

Launch date: June 24, 2002, 6:23 p.m. UTC

Rocket: Titan II SLV

Launch pad: Space Launch Complex 4W

Location: Vandenberg SFB, CA, USA

...

Latest news about this satellite

There are no fresh news available about this satellite. Check back as we update our databases every day.


Newsletter sign-up

Weekly statistics, charts and insights to help you stay on top of the space industry.